Regional Weather Roundup
Issued by NWS Wakefield, VA

Home | Current Version | Previous Version | Graphics & Text | Print | Product List | Glossary On
Versions: 1 2 3 4 5 6 7 8 9 10 11 12 13 14 15 16 17 18 19 20 21 22 23 24 25 26 27 28 29 30 31 32 33 34 35 36 37 38 39 40 41 42 43 44 45 46 47 48 49 50
000
ASUS41 KAKQ 172310
RWRAKQ

REGIONAL WEATHER ROUNDUP
NATIONAL WEATHER SERVICE WAKEFIELD VA
700 PM EDT WED SEP 17 2014

Note: "fair" indicates few or no clouds below 12,000 feet with no
significant weather and/or obstructions to visibility. * = Denotes
station may not report precipitation (e.g., rain,snow,etc.),
thunder or fog.

VAZ042-051-052>054-056-180000-
NORTHERN VIRGINIA

CITY           SKY/WX    TMP DP  RH WIND       PRES   REMARKS
WASH NATIONAL  PTCLDY    74  49  41 E6        29.97S
DULLES         PTCLDY    69  50  50 NW3       29.97S
FORT BELVOIR   CLEAR     67  58  73 CALM      29.97S
QUANTICO       PTCLDY    71  55  56 NW5       29.97S
FREDERICKSBRG* PTCLDY    71  57  61 CALM      29.95F
STAFFORD*      MOCLDY    69  55  60 CALM      30.00S
WARRENTON      CLEAR     70  59  69 CALM      29.96S
CULPEPER*      CLEAR     72  54  53 CALM      29.97R
MANASSAS*      NOT AVBL
LEESBURG*      CLEAR     68  55  64 CALM      29.98S
WINCHESTER     MOCLDY    68  52  56 E3        29.97S
FRONT ROYAL*   CLEAR     64  54  68 CALM      29.95S
LURAY*         CLEAR     70  54  56 CALM      29.96S
$$

VAZ048-049-060>072-079>083-180000-
CENTRAL AND SOUTH CENTRAL VIRGINIA...AND NORTH CENTRAL NORTH CAROLINA

CITY           SKY/WX    TMP DP  RH WIND       PRES   REMARKS
RICHMOND       MOCLDY    72  58  61 E6        29.95F
CHESTERFIELD*  CLOUDY    72  14  11 E5        29.97S
PETERSBURG*    PTCLDY    70  59  68 SE3       29.95F
HANOVER        MOCLDY    69  61  75 MISG      29.97S
TAPPAHANNOCK*  CLEAR     69  56  64 CALM      29.97F
CHARLOTTSVILLE CLOUDY    68  56  65 CALM      29.96S
ORANGE*        CLEAR     70  54  56 CALM      29.97F
LOUISA*        MOCLDY    68  59  73 CALM      29.95S
FARMVILLE*     PTCLDY    72  55  56 CALM      29.93F
CREWE*         PTCLDY    67  61  79 CALM      29.95S
FORT PICKETT*  PTCLDY    69  62  79 SE3       29.95F
LUNENBURG*     MOCLDY    71  64  80 CALM      29.94F
SOUTH HILL*    CLEAR     72  66  83 CALM      29.99F
LAWRENCEVILLE* PTCLDY    69  64  84 CALM      29.95S
ROANOKE RAPIDS CLEAR     70  63  78 CALM      29.94F
RALEIGH        PTCLDY    74  63  68 E7        29.93R
$$

VAZ088>098-180000-
SOUTHEAST VIRGINIA

CITY           SKY/WX    TMP DP  RH WIND       PRES   REMARKS
NORFOLK        PTCLDY    71  58  63 E10       29.95S
VIRGINIA BEACH MOCLDY    70  58  65 NE7       29.95R
NORFOLK NAVAL  MOCLDY    72  58  61 NE10      29.96F
WEST POINT*    MOCLDY    70  60  70 CALM      29.97S
NEWPORT NEWS   CLEAR     72  60  66 NE6       29.95F
LANGLEY AFB    CLEAR     70  60  71 E10       29.95S
FORT EUSTIS    CLEAR     71  55  55 E6        29.94S
WILLIAMSBURG*  CLEAR     72  63  73 CALM      29.96F
HR EXEC AP*    PTCLDY    70  57  64 NE5       29.97S
FRANKLIN*      PTCLDY    70  59  68 E3        29.95S
WAKEFIELD      CLEAR     70  62  76 CALM      29.95F
$$

VAZ020-022-025-037-045-180000-
WEST CENTRAL AND SOUTHWEST VIRGINIA

CITY           SKY/WX    TMP DP  RH WIND       PRES   REMARKS
STAUNTON*      CLEAR     69  51  53 S5        29.98F
HOT SPRINGS VA CLEAR     55  41  60 S5        30.06F
LYNCHBURG      CLEAR     67  57  70 N3        29.97F
DANVILLE       CLEAR     72  61  68 NE5       29.95R
SOUTH BOSTON*  NOT AVBL
MARTINSVILLE   CLEAR     70  61  73 CALM      29.98S
ROANOKE        PTCLDY    68  55  63 SE6       29.98F
BLACKSBURG     PTCLDY    64  61  88 E3        30.02R
DUBLIN*        CLEAR     66  59  77 CALM      30.01R
MARION*        CLEAR     67  57  69 NE3       30.02S
HILLSVILLE*    CLEAR     63  57  80 S3        30.01R
RICHLANDS*     PTCLDY    67  60  77 N9        30.01R
WISE*          PTCLDY    64  54  68 N5        30.03R
ABINGDON*      CLEAR     71  56  58 NW7       29.98R
$$

MDZ021>025-VAZ099-100-180000-
SOUTHERN MARYLAND AND THE DELMARVA PENINSULA

CITY           SKY/WX    TMP DP  RH WIND       PRES   REMARKS
PATUXENT RIVER PTCLDY    68  51  54 E3        29.97S
BAY BRIDGE APT   N/A     70  45  40 CALM      29.97F
LEONARDTOWN    CLEAR     64  50  59 CALM      29.98F
DOVER          MOCLDY    67  52  58 NE3       29.96S
GEORGETOWN     CLEAR     66  49  54 SE5       29.98S
EASTON         CLEAR     70  54  56 CALM      30.01S
CAMBRIDGE      CLEAR     70  54  56 CALM      29.97S
SALISBURY      CLEAR     68  53  58 SE5       29.97S
OCEAN CITY     CLEAR     67  50  54 E5        29.98S
WALLOPS ISLAND CLEAR     68  53  58 E6        29.98S
ACCOMACK*      CLEAR     64  54  68 CALM      29.97S
$$

NCZ012>017-030>032-180000-
EASTERN NORTH CAROLINA

CITY           SKY/WX    TMP DP  RH WIND       PRES   REMARKS
ELIZABETH CITY MOCLDY    71  60  68 NE10      29.95R
AHOSKIE*       PTCLDY    69  62  78 CALM      29.95F
EDENTON*       CLOUDY    70  62  76 E3        29.94S
CURRITUCK*     PTCLDY    71  57  60 NE7       29.96S
KILL DEVIL HLS MOCLDY    72  60  65 NE7       29.92S
MANTEO         PTCLDY    71  61  69 NE12      29.93S
CAPE HATTERAS  CLOUDY    71  64  78 NE9G20    29.90R
TARBORO*       CLEAR     72  64  76 E5        29.94S
GOLDSBORO      PTCLDY    73  72  96 E3        29.90S
WASHINGTON     PTCLDY    71  63  77 NE7       29.93F
GREENVILLE     MOCLDY    72  63  73 E5        29.95S
NEW BERN       CLOUDY    76  65  68 E8        29.92S
WILMINGTON     MOCLDY    75  71  87 NE6       29.88R
$$

VAZ048-180000-
ELSEWHERE

CITY           SKY/WX    TMP DP  RH WIND       PRES   REMARKS
HARRISBURG PA  PTCLDY    67  54  63 CALM      29.96F
BALTIMORE      PTCLDY    66  53  63 CALM      29.97S
ANNAPOLIS      CLEAR     70  50  49 E5        29.97F
ANDREWS AFB    CLEAR     67  53  59 E5        29.97S
WILMINGTON DE  CLEAR     70  48  45 S5        29.98S
PHILADELPHIA   PTCLDY    72  48  42 SW7       29.98R
WILDWOOD NJ*   CLEAR     66  48  52 CALM      29.99S
ATLANTIC CITY  CLEAR     66  53  63 S3        29.98S
HENDERSON NC   PTCLDY    70  62  76 CALM      29.94S
GREENSBORO     MOCLDY    72  62  71 NE6       29.94S
ROCKY MOUNT    CLEAR     72  64  76 NE5       29.92F
FAYETTEVILLE   PTCLDY    76  69  79 NE5       29.89R
CHARLOTTE      PTCLDY    72  64  76 N3        29.94S
$$

VAZ100-180000-
MARINE

STATION/POSITION TIME  TEMP    WIND        PRES    WAVE   SWELL
                       AIR SEA DIR/SP/G            HT/PER HT/PER
                 (UTC) (F)     (DEG/KT/KT) (MB)    (FT/S) (FT/S)
44066 TX TWR #4  2300   66 74  340/  6/  8 1015.1R   4/14   3/14
CAPE MAY NJ      2300   67 76  130/  4/  4 1014.7S
LEWES DE         2300   69 72  130/  3/  4 1014.9R
15NM E FENWICK I 2300   69 73              1014.8F   5/12
OCEAN-CITY-INLET 2300   70 72   90/  4/  5 1014.6S
WACHAPREAGUE VA  2300   70 76   60/  7/  8 1014.8S
THOMAS POINT MD  2300   71 75  130/  4/  5 1015.8F
GOOSES REEF MD   2300   72      80/  2/  4 1015.4S
COVE POINT MD    2300   71      20/  4/  6 1014.7S
SOLOMONS ISLAND  2300      77                N/A
BISHOPS HEAD MD  2300   72 76  260/  3/  4 1014.4R
PINEY POINT MD   2300          130/  6/  7   N/A
POTOMAC MD       2300   73     190/  2/  2 1014.2S
CAMBRIDGE MD     2300   73 75  310/  3/  5 1014.5S
LEWISETTA VA     2300   72 75  150/  4/  5 1014.3F
RAPPAHANNOCK LGT 2300           80/  9/ 10 1015.2S
STINGRAY PT      2300   72      60/  6/  8   N/A
YORK RVR RNG VA  2300   72      80/  8/  9 1013.9F
YORKTOWN VA      2300   72 77   80/  9/ 10 1014.0F
JAMESTOWN VA     2300   70      90/  4/  8   N/A
DOMINION TERM VA 2300   73      30/  3/  7 1014.4S
KIPTOPEKE VA     2300      78   70/  4/  5   N/A
CHES BAY BRIDGE  2300   71 76   40/ 13/ 14 1013.8S
CAPE HENRY VA    2300   71      50/ 12/ 14 1013.2R
CHESAPEAKE LGHT  2200   70      50/ 14/ 16 1014.7R
WILLOUBY STN VA  2300   71      50/  7/  9 1013.0F
S CRANEY ISL VA  2300           30/  9/ 11 1013.9F
CAPE HENRY BUOY  2200      76                N/A     3/13   2/13
1ST LANDING BUOY 2300   72      50/ 12/ 14 1014.0S
CAPE CHARLES BUO 2300      75                N/A     3/13   3/13
OFFSHORE WE BUOY 2300      75                N/A     4/14   5/14
64NM E OF VA BCH 2300   73 78   40/ 14/ 16 1013.2R   5/12   3/12
DUCK PIER NC     2300   72 76   50/ 16/ 18 1013.1S
44100 DUCK FRF   2300      75                N/A     5/14   3/14
44056 DUCK FRF   2300                        N/A     5/14   3/14
OREGON INLET NC  2300   73 76   30/ 11/ 16 1013.1R
HATTERAS NC      2300   74 79   40/ 12/ 15 1012.9S
DIAMOND SHLS NC  2300   75      20/ 16/ 19 1011.7R   6/ 7   3/13
CAPE LOOKOUT NC  2200   75      40/ 17/ 19 1011.9S
$$


USA.gov is the U.S. government's official web portal to all federal, state and local government web resources and services.